Weather in Kharga

Egypt     25°26′28″N   30°32′54″E
temp.,
°C
wind,
m/s
gust,
m/s
humid.,
%
clouds,
%
prec.,
mm/h
press.,
hPa
HPBL,
m
26 june, sun
sun2623:00+31n57190 0.0 100899
02:00+28nnw45210 0.0 100848
05:00+26n47350 0.0 100997
08:00+29n79300 0.0 1010622
11:00+35n66180 0.0 10101447
14:00+38n67100 0.0 10081867
17:00+37n77100 0.0 10071923
20:00+31nnw44150 0.0 100832
27 june, mon
mon2723:00+29nnw33190 0.0 100916
02:00+28nnw44230 0.0 100924
05:00+26nnw44340 0.0 100944
08:00+31n710270 0.0 1010592
11:00+37n78160 0.0 10091459
14:00+40n77110 0.0 10072390
17:00+39n77120 0.0 10062495
20:00+33nnw45190 0.0 100735
28 june, tue
tue2823:00+31n44230 0.0 100837
02:00+29n58270 0.0 1007114
05:00+26n33340 0.0 100826
08:00+31nne56250 0.0 1009546
11:00+36n46190 0.0 10081829
14:00+39nnw66130 0.0 10062744
17:00+39nnw77130 0.0 10052769
20:00+33nnw56180 0.0 100763
29 june, wed
wed2923:00+30n44220 0.0 100830
02:00+28n44250 0.0 100732
05:00+26nnw44320 0.0 100833
08:00+30n57350 0.0 1009582
11:00+36n45200 0.0 10082012
14:00+39nnw56140 0.0 10062791
17:00+39nnw77140 0.0 10053054
20:00+33nnw45190 0.0 100638
30 june, thu
thu3023:00+31n56220 0.0 100759
02:00+29n44260 0.0 100648
05:00+27nnw33310 0.0 100719
08:00+32nne45230 0.0 1008540
11:00+37nw47160 0.0 10072391
14:00+40nw79120 0.0 10053209
17:00+39nw88120 0.0 10053142
20:00+34nnw55170 0.0 100644